sat.trackr.live / text

‹ back to catalog

STARLINK-31255

NORAD 58893 · 2024-020T

PAYLOAD ACTIVE UNKNOWN

§ Identity

Operator
Country
US
Launch date
2024-01-29
Launch site
AFWTR
Launch vehicle
Mass (kg)
RCS (m²)

Purposes: comms

External: N2YO · Heavens-Above · Gunter

§ Orbital elements

Epoch: 2026-05-24T22:39:02.889216Z

Period
93.85 min
Inclination
53.1609°
Eccentricity
0.0001145
Mean motion
15.34390729 rev/d
Perigee alt
461.9 km
Apogee alt
463.5 km
Semi-major
6,840.9 km
B*
1.9311e-5
RAAN
327.6812°
Arg perigee
97.8166°
Mean anomaly
262.2967°
Rev number
12,975

§ Raw data

STARLINK-312551 58893U 24020T   26144.94378344  .00000276  00000+0  19311-4 0  99932 58893  53.1609 327.6812 0001145  97.8166 262.2967 15.34390729129757

JSON: /api/v1/satellites/58893 · /tle

For live sub-satellite position, see the globe view (requires WebGL).

§ Visibility from observer

Set your observer location to see the next 7 days of passes ≥ 10°. The values pass through the URL so the page stays shareable.

No JS? Fill the form by hand. The geolocation button needs JavaScript.